Flag for U.S.A. Weather past 2 weeks in Paterson, New Jersey, U.S.A.

Now
63 °F

Sunny.


Feels Like: 63 °F
Forecast: 52 / 66 °F
Wind: No wind

Location: Essex County Airport

Current Time: Sep 18, 2014 at 8:15:47 PM

Latest Report: Sep 18, 2014 at 7:53 PM


Visibility: 10 mi

Pressure: 30.05 "Hg

Humidity: 58%

Dew point: 48 °F

Location of PatersonLocation

Historic Weather in Paterson — Graph

°F

Paterson temperature yesterday

Maximum temperature yesterday: 71 °F (at 1:53 PM)
Minimum temperature yesterday: 46 °F (at 6:53 AM)
Average temperature yesterday: 59 °F

Past Weeks' High & Low Weather Summary

 TemperatureHumidityPressure
High91 °F (Sep 6, 2:53 PM)93% (Sep 13, 7:53 PM)30.34 "Hg (Sep 13, 7:53 PM)
Low46 °F (Sep 17, 6:53 AM)31% (Sep 17, 3:53 PM)29.83 "Hg (Sep 6, 3:53 PM)
Average66 °F67%30.11 "Hg
* Reported Sep 3 6:53 PM — Sep 18 6:53 PM, Paterson, Weather by CustomWeather, © 2014

Note: Actual official high and low records may vary slightly from our data, if they occured in-between our weather recording intervals... More about our weather records

Advertising

Paterson weather history for previous 24 hours

 ConditionsComfort  
Time TempWeatherWind HumidityBarometerVisibility
6:53 PM
Sep 18
67 °FSunny.No wind47%30.03 "Hg10 mi
5:53 PM73 °FSunny.6 mph36%30.02 "Hg10 mi
4:53 PM74 °FSunny.8 mph32%30.01 "Hg10 mi
3:53 PM74 °FPassing clouds.7 mph35%30.00 "Hg10 mi
2:53 PM73 °FPassing clouds.6 mph36%30.00 "Hg10 mi
1:53 PM72 °FScattered clouds.3 mph38%30.01 "Hg10 mi
12:53 PM73 °FBroken clouds.7 mph40%30.01 "Hg10 mi
11:53 AM71 °FPassing clouds.5 mph44%30.02 "Hg10 mi
10:53 AM68 °FSunny.No wind49%30.04 "Hg10 mi
9:53 AM61 °FPartly sunny.No wind65%30.04 "Hg10 mi
8:53 AM54 °FScattered clouds.No wind80%30.03 "Hg10 mi
7:53 AM50 °FPartly sunny.No wind86%30.03 "Hg10 mi
6:53 AM46 °FPassing clouds.No wind93%30.03 "Hg10 mi
5:53 AM47 °FClear.No wind90%30.01 "Hg10 mi
4:53 AM48 °FClear.No wind86%30.00 "Hg10 mi
3:53 AM48 °FClear.No wind89%29.99 "Hg10 mi
2:53 AM49 °FClear.No wind90%29.98 "Hg10 mi
1:53 AM50 °FClear.No wind83%29.99 "Hg10 mi
12:53 AM51 °FClear.No wind83%30.00 "Hg10 mi
11:53 PM
Sep 17
52 °FClear.No wind80%30.01 "Hg10 mi
10:53 PM54 °FClear.No wind74%30.01 "Hg10 mi
9:53 PM55 °FClear.No wind74%30.01 "Hg10 mi
8:53 PM57 °FClear.No wind69%30.01 "Hg10 mi
Weather by CustomWeather, © 2014

See weather overviewHow to use our weather pages